Cloud_Cover
0 0 0 4 81 62 47 2 4 4 2 0 0 2 0 0 93 77 0 0 10 0 3 4 5 5 5 7 5 1 2 28 32 17 98 81 47 91 100 100 100 100 100 100 100 100 100 100 100
0 0 5 8 100 93 37 4 0 0 0 2 1 3 0 0 0 0 0 0 1 1 5 5 5 5 8 13 5 0 0 3 4 5 5 5 56 9 100 100 100 100 100 100 100 100 100 100 100
0 0 70 100 100 85 43 5 0 0 0 0 0 0 0 0 0 1 1 0 1 0 5 5 5 5 5 8 5 0 4 2 4 30 11 96 38 100 100 67 100 100 100 100 100 100 100 100 100
0 2 27 100 89 20 4 0 0 4 0 0 0 0 0 0 0 0 0 0 0 16 10 5 5 25 51 5 5 4 5 1 1 6 5 42 31 80 100 98 77 100 100 100 100 100 100 100 100
3 17 99 62 87 14 1 0 0 2 0 0 0 0 0 0 0 0 0 0 2 65 4 5 5 5 5 5 1 2 0 0 0 0 1 4 6 33 5 95 88 100 100 100 100 100 100 100 100
6 100 74 100 78 20 4 1 4 0 0 0 0 0 0 0 0 0 12 2 83 100 7 4 4 5 5 5 4 0 1 0 0 0 1 6 11 2 5 93 87 100 100 100 100 100 100 87 100
85 100 100 95 43 4 5 18 58 2 2 0 0 0 0 0 0 1 58 86 93 100 7 10 5 3 5 5 4 0 0 0 0 4 5 2 0 5 6 4 14 98 100 100 100 100 100 100 100
34 8 23 99 93 5 2 5 0 5 0 0 0 0 1 0 0 1 82 95 98 90 84 10 6 98 6 6 5 7 1 3 0 5 5 4 1 0 0 0 0 25 100 100 100 100 100 100 100
0 96 90 37 48 83 5 80 0 0 0 0 0 0 1 0 0 6 42 100 100 100 28 37 100 93 90 66 41 10 7 4 7 62 5 5 22 34 2 0 0 0 49 100 100 100 100 100 100
7 100 15 2 4 5 4 2 5 45 0 0 0 0 0 0 0 0 13 18 100 100 96 79 20 46 51 71 100 100 98 70 77 87 68 94 95 100 43 4 0 0 4 100 100 100 100 100 100
30 86 0 0 0 0 5 62 5 14 97 25 0 0 0 0 0 0 10 28 49 91 85 79 68 3 9 95 100 56 97 20 94 100 100 73 100 100 33 72 82 14 0 49 100 100 100 100 100
3 0 0 0 0 0 0 1 5 2 5 0 0 0 0 0 0 0 3 1 5 17 80 92 82 8 3 14 36 53 70 5 46 99 99 100 78 40 82 100 100 100 100 32 100 45 98 100 100
0 0 0 0 0 0 0 0 0 0 0 0 0 0 0 0 0 0 0 5 13 4 16 7 3 21 28 86 18 72 85 18 43 49 27 100 65 46 100 92 99 100 100 93 100 80 100 100 77
0 0 0 0 0 0 0 0 0 0 0 0 0 0 0 0 0 0 0 0 15 5 6 2 0 4 54 6 12 74 100 100 91 52 96 4 39 17 38 100 100 100 100 100 100 100 70 100 100
0 0 0 0 0 0 0 36 0 0 0 0 0 0 0 0 0 0 0 0 0 10 80 9 25 40 41 31 14 20 27 100 100 80 100 8 9 58 17 97 100 100 49 100 100 100 68 41 100
0 0 0 6 0 0 0 78 0 0 0 0 0 0 0 0 0 0 1 0 0 5 61 5 37 14 10 5 9 30 75 84 100 96 60 100 50 82 100 57 19 26 47 27 35 66 65 76 15
0 0 11 1 0 0 0 5 0 0 0 0 0 0 0 0 0 0 0 0 0 3 39 37 19 16 36 84 43 14 56 51 98 90 100 100 100 100 100 100 17 7 21 7 84 21 100 100 34
0 0 0 0 0 0 0 5 0 0 0 0 0 0 0 0 0 0 0 0 5 5 28 61 80 100 100 100 100 74 100 44 87 69 100 100 100 100 100 100 89 66 36 100 33 100 97 100 73
0 0 0 0 0 0 0 0 0 0 0 2 0 0 0 0 0 1 0 0 2 15 46 96 100 100 100 100 100 99 87 100 95 46 100 100 100 90 87 86 38 82 52 93 52 100 28 76 95
0 0 4 2 4 0 0 0 0 0 0 1 0 0 0 0 2 0 0 0 6 86 45 96 96 100 100 100 100 100 79 10 16 61 3 8 13 13 11 12 18 6 5 12 94 100 96 71 82
0 4 5 5 5 4 0 3 5 0 0 0 2 0 0 0 5 1 0 0 84 81 78 17 28 95 89 100 100 89 35 13 24 81 36 88 66 100 100 66 5 11 5 9 6 81 100 100 64
0 1 0 0 5 93 100 61 2 3 0 0 0 0 0 0 0 2 0 39 100 95 82 21 5 57 48 35 72 85 16 0 2 0 0 1 71 100 100 66 3 7 2 5 5 5 100 100 100
0 1 5 5 5 4 22 89 96 4 0 5 0 0 0 0 0 0 0 50 100 96 99 91 5 95 11 22 100 57 1 2 0 0 5 5 5 45 49 60 38 7 8 18 10 17 34 100 100
32 17 5 6 21 8 5 90 100 99 50 5 2 3 1 1 0 0 0 20 100 76 64 61 6 74 8 93 12 61 1 6 4 0 5 93 50 86 16 98 20 27 24 83 80 16 25 98 100
44 100 99 69 73 73 24 40 5 3 0 0 0 2 4 0 0 0 0 95 100 86 14 98 39 79 96 60 5 11 54 46 15 2 4 76 2 19 14 49 55 28 34 30 73 100 70 62 70
0 0 1 99 100 100 100 1 4 0 0 0 5 0 0 0 0 0 0 100 100 100 97 42 92 73 84 97 7 28 8 32 5 5 3 4 64 62 72 45 34 65 59 67 39 26 98 63 63
5 5 4 4 2 1 17 53 17 0 0 3 2 0 0 0 0 0 0 88 100 100 99 89 97 100 100 97 86 18 99 5 2 11 12 7 6 47 58 94 64 100 100 100 98 88 26 90 87
0 4 5 0 1 1 89 91 43 1 0 2 0 0 0 0 1 0 56 100 100 100 100 58 100 100 100 95 100 98 50 6 25 72 12 13 71 100 96 95 99 64 62 79 100 100 100 66 90
2 0 0 5 85 92 94 80 100 100 66 2 0 0 0 0 0 65 93 100 100 100 100 83 95 47 7 41 12 55 90 30 42 35 6 94 97 96 97 98 89 96 98 86 71 100 100 100 100
0 0 1 0 5 1 0 30 98 99 4 0 0 0 0 0 7 98 97 100 100 100 100 100 100 55 98 35 88 17 27 38 72 65 49 84 93 70 100 100 90 100 91 84 87 98 52 42 100